Flag for Romania Weather past 2 weeks in Bucharest, Romania

Now
52 °F

Light rain. Scattered clouds.


Feels Like: 47 °F
Forecast: 45 / 57 °F
Wind: 13 mph from Northeast

Location: Bucharest / Imh

Current Time: Apr 18, 2015 at 6:40:10 PM

Latest Report: Apr 18, 2015 at 6:00 PM


Visibility: 4 mi

Pressure: 29.80 "Hg

Humidity: 94%

Dew point: 50 °F

Location of BucharestLocation

Historic Weather in Bucharest — Graph

°F

Bucharest temperature yesterday

Maximum temperature yesterday: 81 °F (at 3:30 PM)
Minimum temperature yesterday: 54 °F (at 6:00 AM)
Average temperature yesterday: 67 °F

Past Weeks' High & Low Weather Summary

 TemperatureHumidityPressure
High81 °F (Apr 17, 3:30 PM)100% (Apr 6, 5:30 AM)30.42 "Hg (Apr 6, 5:30 AM)
Low34 °F (Apr 4, 5:30 AM)19% (Apr 11, 3:30 PM)29.71 "Hg (Apr 18, 3:30 PM)
Average54 °F52%30.05 "Hg
* Reported Apr 3 5:00 PM — Apr 18 5:30 PM, Bucharest, Weather by CustomWeather, © 2015

Note: Actual official high and low records may vary slightly from our data, if they occured in-between our weather recording intervals... More about our weather records

Advertising

Bucharest weather history for previous 24 hours

 ConditionsComfort  
Time TempWeatherWind HumidityBarometerVisibility
5:30 PM
Sat, Apr 18
52 °FThunderstorms. Fog.8 mph100%29.80 "Hg3 mi
5:00 PM54 °FThunderstorms. Scattered clouds.12 mph94%29.80 "Hg2 mi
4:30 PM57 °FThunderstorms. Partly sunny.15 mph77%29.77 "HgN/A
4:00 PM64 °FScattered clouds.16 mph60%29.74 "HgN/A
3:30 PM70 °FThundershowers. Scattered clouds.12 mph46%29.71 "HgN/A
3:00 PM70 °FPartly sunny.13 mph46%29.74 "HgN/A
2:30 PM70 °FPartly sunny.18 mph46%29.74 "HgN/A
2:00 PM68 °FPartly sunny.15 mph49%29.74 "HgN/A
1:30 PM68 °FPassing clouds.16 mph49%29.74 "HgN/A
1:00 PM68 °FPartly sunny.14 mph49%29.74 "HgN/A
12:30 PM68 °FPartly sunny.15 mph49%29.74 "HgN/A
12:00 PM68 °FPartly sunny.21 mph49%29.74 "HgN/A
11:30 AM68 °FPassing clouds.16 mph49%29.74 "HgN/A
11:00 AM66 °FPassing clouds.21 mph49%29.74 "HgN/A
10:30 AM66 °FPassing clouds.14 mph52%29.74 "HgN/A
10:00 AM64 °FPassing clouds.20 mph52%29.74 "HgN/A
9:30 AM64 °FPassing clouds.18 mph52%29.74 "HgN/A
9:00 AM63 °FPassing clouds.15 mph56%29.74 "HgN/A
8:30 AM63 °FSunny.15 mph56%29.74 "Hg10 mi
8:00 AM61 °FSunny.13 mph55%29.74 "Hg10 mi
7:30 AM57 °FCool.10 mph63%29.77 "HgN/A
7:00 AM55 °FPassing clouds.8 mph67%29.77 "HgN/A
6:30 AM57 °FClear.8 mph63%29.77 "Hg10 mi
6:00 AM57 °FPassing clouds.7 mph59%29.77 "HgN/A
5:30 AM57 °FClear.5 mph59%29.77 "Hg10 mi
5:00 AM57 °FClear.5 mph59%29.77 "Hg10 mi
4:30 AM57 °FPassing clouds.5 mph63%29.80 "HgN/A
4:00 AM59 °FClear.6 mph59%29.80 "Hg10 mi
3:30 AM59 °FPassing clouds.7 mph59%29.80 "HgN/A
3:00 AM61 °FPassing clouds.9 mph55%29.80 "HgN/A
2:30 AM61 °FPassing clouds.5 mph55%29.80 "HgN/A
2:00 AM61 °FPassing clouds.5 mph55%29.80 "HgN/A
1:30 AM63 °FClear.6 mph52%29.80 "Hg10 mi
1:00 AM63 °FClear.6 mph52%29.80 "Hg10 mi
12:30 AM64 °FClear.6 mph46%29.77 "Hg10 mi
12:00 AM64 °FClear.3 mph46%29.80 "Hg10 mi
11:30 PM
Fri, Apr 17
68 °FPassing clouds.5 mph40%29.80 "HgN/A
11:00 PM68 °FPassing clouds.6 mph40%29.80 "HgN/A
10:30 PM70 °FPassing clouds.7 mph38%29.80 "HgN/A
10:00 PM70 °FPassing clouds.10 mph35%29.80 "HgN/A
9:30 PM70 °FPassing clouds.9 mph35%29.80 "HgN/A
9:00 PM72 °FSunny.10 mph33%29.77 "Hg10 mi
8:30 PM72 °FSunny.12 mph33%29.77 "Hg10 mi
8:00 PM73 °FSunny.12 mph31%29.77 "Hg10 mi
7:30 PM75 °FSunny.14 mph29%29.77 "Hg10 mi
7:00 PM77 °FPassing clouds.14 mph28%29.80 "HgN/A
6:30 PM77 °FPassing clouds.16 mph26%29.80 "HgN/A
6:00 PM79 °FPassing clouds.16 mph26%29.80 "HgN/A
Weather by CustomWeather, © 2015

See weather overviewHow to use our weather pages